{"data":{"norad_id":64570,"intl_designator":"2025-135AU","name":"ICEYE-X54","alt_names":[],"object_type":"PAYLOAD","status":"ACTIVE","operator":null,"country":"NETH","launch_date":"2025-06-23","launch_site_code":"AFWTR","launch_vehicle":null,"mission":null,"orbit_class":"UNKNOWN","rcs_meters":null,"size_class":null,"mass_kg":null,"dimensions":null,"purposes":[],"wikipedia_slug":null,"has_3d_model":false,"image_url":null,"decayed_at":null,"tle_current":{"epoch":"2026-09-21T22:56:27.816864Z","epoch_age_seconds":56012,"freshness":"FRESH","line1":"1 64570U 25135AU  26264.95587751  .00001502  00000+0  14286-3 0  9996","line2":"2 64570  97.7802  18.5032 0002626  28.0467 332.0894 14.94940199 68350","mean_motion":14.94940199,"eccentricity":0.0002626,"inclination_deg":97.7802,"raan_deg":18.5032,"arg_perigee_deg":28.0467,"mean_anomaly_deg":332.0894,"bstar":0.00014286,"rev_number":6835,"period_min":96.324923295477,"perigee_km":580.73049535736,"apogee_km":584.38625256777,"semimajor_km":6960.6953739626,"source":"CELESTRAK","updated_at":"2026-09-22T09:00:29.850656Z"}}}